CW5842 Weather Reports


Display with metric or nautical units.
time (UTC)temp
F
wind
direction
speed
MPH
gust
MPH
rain 1hr
in
rain 24hr
in
rain mn
in
humidity
%
barometer
mb
20260506091021 61 322 1.0 4.0 0.00 0.00 0.00 77 1010.6
20260506090521 61 15 1.0 5.0 0.00 0.00 0.00 77 1010.8
20260506090037 61 344 0.0 8.0 0.00 0.00 0.00 77 1010.8
20260506085521 61 352 2.0 8.0 0.00 0.00 0.00 76 1010.9
20260506085020 61 46 2.0 6.0 0.00 0.00 0.00 76 1010.8
20260506084537 61 43 1.0 3.0 0.00 0.00 0.00 76 1010.8
20260506084021 61 25 1.0 6.0 0.00 0.00 0.00 77 1010.8
20260506083521 61 22 1.0 6.0 0.00 0.00 0.00 76 1010.7
20260506083037 61 5 2.0 8.0 0.00 0.00 0.00 76 1010.6
20260506082518 62 5 2.0 8.0 0.00 0.00 0.00 76 1010.6
20260506082022 62 5 1.0 5.0 0.00 0.00 0.00 76 1010.5
20260506081537 62 5 1.0 5.0 0.00 0.00 0.00 76 1010.6
20260506081020 62 49 2.0 5.0 0.00 0.00 0.00 76 1010.5
20260506080522 62 11 1.0 5.0 0.00 0.00 0.00 76 1010.6
20260506073524 63 344 1.0 5.0 0.00 0.00 0.00 76 1010.4
20260506073042 63 360 1.0 7.0 0.00 0.00 0.00 76 1010.3
20260506072521 63 0 0.0 7.0 0.00 0.00 0.00 75 1010.4
20260506072021 63 39 3.0 8.0 0.00 0.00 0.00 75 1010.2
20260506071537 63 38 3.0 8.0 0.00 0.00 0.00 75 1010.2
20260506071018 63 38 3.0 6.0 0.00 0.00 0.00 75 1010.3
20260506070521 63 15 2.0 6.0 0.00 0.00 0.00 75 1010.2
20260506062022 64 349 1.0 5.0 0.00 0.00 0.00 74 1010.1
20260506061538 64 5 1.0 4.0 0.00 0.00 0.00 73 1009.8
20260506061022 64 340 0.0 3.0 0.00 0.00 0.00 74 1010.0
20260506060520 64 352 1.0 4.0 0.00 0.00 0.00 73 1009.9
20260506051021 66 298 1.0 6.0 0.00 0.00 0.00 71 1010.1
20260506050526 66 5 1.0 6.0 0.00 0.00 0.00 71 1010.0
20260506045022 67 22 1.0 6.0 0.00 0.00 0.00 70 1009.9
20260506044545 67 11 1.0 7.0 0.00 0.00 0.00 70 1009.9
20260506044021 67 352 1.0 9.0 0.00 0.00 0.00 70 1009.6
20260506043520 67 5 2.0 10.0 0.00 0.00 0.00 70 1009.9
20260506043037 67 40 3.0 10.0 0.00 0.00 0.00 69 1009.8
20260506042521 68 19 2.0 8.0 0.00 0.00 0.00 69 1009.8
20260506042023 68 0 2.0 12.0 0.00 0.00 0.00 69 1009.9
20260506041536 68 11 3.0 12.0 0.00 0.00 0.00 69 1009.8
20260506041018 68 360 2.0 11.0 0.00 0.00 0.00 69 1009.8
20260506040522 68 0 1.0 6.0 0.00 0.00 0.00 69 1009.8
20260506040056 69 0 1.0 8.0 0.00 0.00 0.00 69 1010.1
20260506035522 69 5 3.0 8.0 0.00 0.00 0.00 68 1009.8
20260506035022 69 5 2.0 8.0 0.00 0.00 0.00 68 1009.7
20260506034558 69 5 2.0 8.0 0.00 0.00 0.00 68 1009.8
20260506034022 70 304 2.0 7.0 0.00 0.00 0.00 68 1009.7
20260506033522 70 350 2.0 8.0 0.00 0.00 0.00 68 1009.6
20260506033039 70 34 1.0 8.0 0.00 0.00 0.00 68 1009.3
20260506032522 70 5 2.0 5.0 0.00 0.00 0.00 68 1009.3
20260506032022 70 304 1.0 4.0 0.00 0.00 0.00 68 1009.1
20260506031553 70 0 1.0 4.0 0.00 0.00 0.00 68 1008.9
20260506031025 71 0 0.0 9.0 0.00 0.00 0.00 68 1008.7
20260506030522 71 0 0.0 9.0 0.00 0.00 0.00 67 1008.6
20260506030038 71 22 2.0 6.0 0.00 0.00 0.00 67 1008.6
20260506025520 71 0 1.0 5.0 0.00 0.00 0.00 67 1008.3
20260506025021 71 329 0.0 2.0 0.00 0.00 0.00 66 1008.1
20260506024537 71 0 0.0 3.0 0.00 0.00 0.00 66 1008.0
20260506024020 71 0 0.0 4.0 0.00 0.00 0.00 66 1008.1
20260506023523 71 5 1.0 4.0 0.00 0.00 0.00 66 1008.1
20260506023040 72 314 0.0 4.0 0.00 0.00 0.00 65 1007.9
20260506022521 72 323 0.0 5.0 0.00 0.00 0.00 64 1007.8
20260506022020 72 346 1.0 5.0 0.00 0.00 0.00 64 1007.5
20260506021538 73 323 0.0 5.0 0.00 0.00 0.00 64 1007.4
20260506021022 73 311 1.0 10.0 0.00 0.00 0.00 64 1007.5
20260506020521 73 0 2.0 10.0 0.00 0.00 0.00 63 1007.4
20260506020039 74 321 1.0 3.0 0.00 0.00 0.00 64 1007.4
20260506015522 74 0 0.0 6.0 0.00 0.00 0.00 63 1007.1
20260506015019 74 0 0.0 6.0 0.00 0.00 0.00 63 1007.0
20260506014535 75 332 1.0 5.0 0.00 0.00 0.00 62 1006.9
20260506014021 75 0 0.0 5.0 0.00 0.00 0.00 61 1006.9
20260506013521 75 5 1.0 5.0 0.00 0.00 0.00 62 1006.6
20260506013037 76 279 1.0 7.0 0.00 0.00 0.00 61 1006.5
20260506012521 76 5 2.0 7.0 0.00 0.00 0.00 61 1006.0
20260506012022 77 15 2.0 12.0 0.00 0.00 0.00 61 1005.9
20260506011538 77 0 4.0 12.0 0.00 0.00 0.00 60 1005.8
20260506011023 78 5 1.0 10.0 0.00 0.00 0.00 60 1005.7
20260506010522 78 19 3.0 11.0 0.00 0.00 0.00 59 1005.6
20260506010043 79 344 4.0 11.0 0.00 0.00 0.00 59 1005.6
20260506005522 80 278 5.0 11.0 0.00 0.00 0.00 58 1005.6
20260506005022 80 206 3.0 10.0 0.00 0.00 0.00 58 1005.5
20260506004538 81 299 3.0 13.0 0.00 0.00 0.00 57 1005.3
20260506004025 82 304 5.0 13.0 0.00 0.00 0.00 56 1005.2
20260506003519 83 350 4.0 12.0 0.00 0.00 0.00 55 1005.0
20260506003038 84 40 3.0 12.0 0.00 0.00 0.00 54 1005.0
20260506002521 84 325 4.0 12.0 0.00 0.00 0.00 52 1004.9
20260506002020 85 11 3.0 13.0 0.00 0.00 0.00 50 1004.9
20260506001537 87 360 4.0 13.0 0.00 0.00 0.00 47 1004.8
20260506001022 89 21 3.0 10.0 0.00 0.00 0.00 44 1004.8
20260506000521 92 321 2.0 10.0 0.00 0.00 0.00 40 1004.9
20260506000037 93 255 0.0 2.0 0.00 0.00 0.00 40 1004.7
20260505235521 93 0 0.0 3.0 0.00 0.00 0.00 39 1004.7
20260505235020 93 0 0.0 4.0 0.00 0.00 0.00 39 1004.6
20260505234542 93 262 0.0 4.0 0.00 0.00 0.00 40 1004.5
20260505234019 93 251 0.0 4.0 0.00 0.00 0.00 39 1004.5
20260505233519 93 264 0.0 4.0 0.00 0.00 0.00 39 1004.3
20260505233041 93 0 0.0 6.0 0.00 0.00 0.00 39 1004.3
20260505232522 93 192 1.0 6.0 0.00 0.00 0.00 39 1004.3
20260505232022 93 132 0.0 5.0 0.00 0.00 0.00 38 1004.3
20260505231546 93 166 2.0 6.0 0.00 0.00 0.00 38 1004.2
20260505231021 93 5 1.0 6.0 0.00 0.00 0.00 38 1004.3
20260505230522 93 0 0.0 6.0 0.00 0.00 0.00 39 1004.3
20260505230037 93 240 0.0 4.0 0.00 0.00 0.00 39 1004.2
20260505225527 93 0 1.0 6.0 0.00 0.00 0.00 38 1004.3
20260505225022 93 184 2.0 7.0 0.00 0.00 0.00 40 1004.2
20260505224537 93 178 2.0 7.0 0.00 0.00 0.00 39 1004.2
20260505224021 93 244 2.0 6.0 0.00 0.00 0.00 39 1004.3
20260505223525 93 246 2.0 5.0 0.00 0.00 0.00 39 1004.2
20260505223044 93 171 1.0 5.0 0.00 0.00 0.00 39 1004.3
20260505222521 93 195 1.0 5.0 0.00 0.00 0.00 39 1004.0
20260505222019 93 232 1.0 7.0 0.00 0.00 0.00 39 1004.1
20260505221537 93 284 1.0 7.0 0.00 0.00 0.00 39 1004.2
20260505221022 93 198 3.0 7.0 0.00 0.00 0.00 39 1004.1
20260505220522 93 169 1.0 9.0 0.00 0.00 0.00 38 1004.1
20260505220041 94 215 2.0 9.0 0.00 0.00 0.00 38 1004.0
20260505215522 93 184 2.0 7.0 0.00 0.00 0.00 38 1004.1
20260505215022 93 163 2.0 8.0 0.00 0.00 0.00 39 1004.0
20260505214548 93 136 2.0 8.0 0.00 0.00 0.00 39 1004.1
20260505214024 93 182 2.0 7.0 0.00 0.00 0.00 40 1004.3
20260505213521 93 210 2.0 6.0 0.00 0.00 0.00 39 1004.2
20260505213038 92 198 2.0 6.0 0.00 0.00 0.00 40 1004.2
20260505212521 92 133 2.0 8.0 0.00 0.00 0.00 40 1004.2
20260505212019 92 175 2.0 8.0 0.00 0.00 0.00 42 1004.4
20260505211538 92 102 1.0 8.0 0.00 0.00 0.00 44 1004.4
20260505211020 92 235 2.0 9.0 0.00 0.00 0.00 44 1004.4
20260505210521 92 197 3.0 9.0 0.00 0.00 0.00 45 1004.4
20260505210037 92 187 3.0 8.0 0.00 0.00 0.00 43 1004.5
20260505205521 92 177 4.0 11.0 0.00 0.00 0.00 44 1004.6
20260505205021 92 246 4.0 11.0 0.00 0.00 0.00 45 1004.7
20260505204537 92 194 3.0 10.0 0.00 0.00 0.00 45 1004.8
20260505204021 92 144 4.0 10.0 0.00 0.00 0.00 44 1004.8
20260505203522 92 186 3.0 9.0 0.00 0.00 0.00 43 1004.9
20260505203039 92 202 3.0 11.0 0.00 0.00 0.00 44 1004.9
20260505202519 92 230 2.0 11.0 0.00 0.00 0.00 43 1004.9
20260505202021 92 159 2.0 8.0 0.00 0.00 0.00 44 1005.0
20260505201539 92 0 3.0 9.0 0.00 0.00 0.00 43 1005.1
20260505201022 92 303 3.0 10.0 0.00 0.00 0.00 46 1005.1
20260505200519 91 128 4.0 10.0 0.00 0.00 0.00 45 1005.2
20260505200043 91 209 2.0 10.0 0.00 0.00 0.00 47 1005.2
20260505195525 91 184 4.0 12.0 0.00 0.00 0.00 46 1005.2
20260505195021 91 207 6.0 12.0 0.00 0.00 0.00 47 1005.3
20260505194538 91 213 2.0 9.0 0.00 0.00 0.00 46 1005.3
20260505194022 91 164 3.0 9.0 0.00 0.00 0.00 47 1005.3
20260505193521 91 282 3.0 10.0 0.00 0.00 0.00 47 1005.4
20260505193037 91 151 4.0 13.0 0.00 0.00 0.00 47 1005.5
20260505192524 90 192 4.0 13.0 0.00 0.00 0.00 46 1005.5
20260505192020 91 216 2.0 10.0 0.00 0.00 0.00 46 1005.6
20260505191540 90 132 3.0 10.0 0.00 0.00 0.00 46 1005.7
20260505191019 90 292 3.0 8.0 0.00 0.00 0.00 46 1005.6
20260505190518 90 267 3.0 9.0 0.00 0.00 0.00 46 1005.7
20260505190043 89 203 2.0 9.0 0.00 0.00 0.00 49 1005.8
20260505185524 89 266 4.0 9.0 0.00 0.00 0.00 49 1005.9
20260505185022 89 286 3.0 10.0 0.00 0.00 0.00 49 1005.8
20260505184538 89 143 2.0 11.0 0.00 0.00 0.00 51 1006.0
20260505184022 89 205 3.0 11.0 0.00 0.00 0.00 51 1005.8
20260505183521 88 205 3.0 11.0 0.00 0.00 0.00 52 1005.9
20260505183040 88 174 3.0 11.0 0.00 0.00 0.00 52 1005.9
20260505182521 88 230 2.0 8.0 0.00 0.00 0.00 53 1006.0
20260505182022 87 181 4.0 9.0 0.00 0.00 0.00 56 1006.1
20260505181540 87 211 3.0 9.0 0.00 0.00 0.00 55 1006.1
20260505181019 86 197 4.0 10.0 0.00 0.00 0.00 56 1006.2
20260505180518 86 252 4.0 10.0 0.00 0.00 0.00 58 1006.2
20260505180041 86 208 4.0 12.0 0.00 0.00 0.00 58 1006.2
20260505175522 85 206 2.0 12.0 0.00 0.00 0.00 59 1006.2
20260505175022 85 225 5.0 12.0 0.00 0.00 0.00 59 1006.1
20260505174543 85 214 3.0 11.0 0.00 0.00 0.00 60 1006.1
20260505174024 84 143 3.0 11.0 0.00 0.00 0.00 61 1006.4
20260505173521 84 191 6.0 11.0 0.00 0.00 0.00 60 1006.5
20260505173038 83 202 3.0 13.0 0.00 0.00 0.00 63 1006.5
20260505172521 83 199 5.0 13.0 0.00 0.00 0.00 63 1006.5
20260505172021 82 187 3.0 9.0 0.00 0.00 0.00 63 1006.5
20260505171539 82 200 3.0 8.0 0.00 0.00 0.00 65 1006.6
20260505171020 82 176 2.0 13.0 0.00 0.00 0.00 65 1006.6
20260505170521 82 182 4.0 13.0 0.00 0.00 0.00 64 1006.5
20260505170037 82 223 3.0 12.0 0.00 0.00 0.00 65 1006.4
20260505165521 82 263 5.0 12.0 0.00 0.00 0.00 65 1006.4
20260505165018 82 148 4.0 9.0 0.00 0.00 0.00 65 1006.4
20260505164537 81 218 3.0 13.0 0.00 0.00 0.00 66 1006.5
20260505164025 81 0 4.0 14.0 0.00 0.00 0.00 65 1006.4
20260505163524 81 164 5.0 14.0 0.00 0.00 0.00 66 1006.5
20260505163049 81 185 3.0 11.0 0.00 0.00 0.00 67 1006.5
20260505162522 81 252 4.0 9.0 0.00 0.00 0.00 67 1006.5
20260505162022 81 134 3.0 10.0 0.00 0.00 0.00 67 1006.4
20260505161538 80 115 3.0 11.0 0.00 0.00 0.00 68 1006.4
20260505161024 80 162 4.0 12.0 0.00 0.00 0.00 68 1006.4
20260505160522 80 210 3.0 12.0 0.00 0.00 0.00 68 1006.4
20260505153043 78 227 4.0 11.0 0.00 0.00 0.00 73 1006.5
20260505152523 78 140 3.0 12.0 0.00 0.00 0.00 73 1006.4
20260505152022 77 142 5.0 12.0 0.00 0.00 0.00 73 1006.3
20260505151533 77 120 4.0 12.0 0.00 0.00 0.00 74 1006.4
20260505151025 77 186 6.0 12.0 0.00 0.00 0.00 73 1006.5
20260505150522 77 180 5.0 12.0 0.00 0.00 0.00 74 1006.6
20260505140521 73 182 4.0 11.0 0.00 0.00 0.00 79 1006.2
20260505125021 70 205 3.0 9.0 0.00 0.00 0.00 80 1005.9
20260505124540 70 159 2.0 9.0 0.00 0.00 0.00 80 1005.9
20260505124022 70 209 3.0 8.0 0.00 0.00 0.00 80 1005.9
20260505123525 69 199 2.0 8.0 0.00 0.00 0.00 80 1006.0
20260505123045 69 0 1.0 8.0 0.00 0.00 0.00 80 1005.9
20260505122520 69 360 2.0 9.0 0.00 0.00 0.00 80 1005.7
20260505122031 69 202 3.0 9.0 0.00 0.00 0.00 80 1005.7
20260505121540 69 225 3.0 9.0 0.00 0.00 0.00 80 1005.6
20260505121019 69 195 1.0 5.0 0.00 0.00 0.00 80 1005.4
20260505120521 69 171 0.0 6.0 0.00 0.00 0.00 80 1005.5
20260505120037 69 212 2.0 8.0 0.00 0.00 0.00 80 1005.4
20260505115521 69 234 1.0 8.0 0.00 0.00 0.00 80 1005.4
20260505115022 69 142 3.0 7.0 0.00 0.00 0.00 80 1005.5
20260505114537 69 176 1.0 8.0 0.00 0.00 0.00 80 1005.4
20260505114020 69 163 3.0 9.0 0.00 0.00 0.00 80 1005.4
20260505113521 69 224 3.0 9.0 0.00 0.00 0.00 80 1005.3
20260505113041 69 215 2.0 5.0 0.00 0.00 0.00 80 1005.1
20260505112521 69 217 1.0 7.0 0.00 0.00 0.00 80 1005.0
20260505112019 69 192 2.0 9.0 0.00 0.00 0.00 80 1005.2
20260505111540 69 207 2.0 9.0 0.00 0.00 0.00 80 1005.2
20260505111022 69 185 3.0 9.0 0.00 0.00 0.00 80 1005.3
20260505110522 69 171 3.0 8.0 0.00 0.00 0.00 80 1005.2
20260505102022 69 0 1.0 9.0 0.00 0.00 0.00 80 1005.1
20260505101538 69 130 3.0 9.0 0.00 0.00 0.00 80 1005.1
20260505101021 69 257 1.0 6.0 0.00 0.00 0.00 80 1005.1
20260505100526 69 213 0.0 3.0 0.00 0.00 0.00 80 1005.1
20260505100037 69 0 0.0 3.0 0.00 0.00 0.00 80 1005.1
20260505095521 69 0 1.0 5.0 0.00 0.00 0.00 80 1005.2
20260505095022 69 200 1.0 5.0 0.00 0.00 0.00 80 1005.3
20260505094540 69 165 0.0 6.0 0.00 0.00 0.00 80 1005.2
20260505094021 69 0 1.0 6.0 0.00 0.00 0.00 80 1005.1
20260505093520 69 188 1.0 4.0 0.00 0.00 0.00 80 1005.2
20260505093043 70 178 0.0 7.0 0.00 0.00 0.00 80 1005.3
20260505092525 70 0 1.0 7.0 0.00 0.00 0.00 80 1005.4
20260505092020 70 198 1.0 7.0 0.00 0.00 0.00 80 1005.4
20260505091549 70 194 2.0 7.0 0.00 0.00 0.00 80 1005.4